Overview Statistics Trail Chart Weather Telemetry Raw packets
 

This is the latest recevied weather packets stored in our database for station/object HI3RRR-13. If no packets are shown the sender has not sent any weather packets the latest 10 day(s).

<< 35 36 37 38 39 40 41 >>
Time Temp. Humidity Pressure Rain* Wind** Luminosity Snow
1788111269 32.22° C 60% 1014 hPa 0 mm - - -
1788110668 33.89° C 62% 1015 hPa 0 mm - - -
1788110068 33.89° C 62% 1015 hPa 0 mm - - -
1788109467 33.89° C 62% 1015 hPa 0 mm - - -
1788108866 33.89° C 62% 1015 hPa 0 mm - - -
1788108266 31.67° C 58% 1015 hPa 0 mm - - -
1788107665 32.22° C 65% 1015 hPa 0 mm - - -
1788107065 32.22° C 65% 1016 hPa 0 mm - - -
1788106464 31.67° C 63% 1015 hPa 0 mm - - -
1788105863 31.67° C 63% 1015 hPa 0 mm - - -
1788105263 32.78° C 74% 1015 hPa 0 mm - - -
1788104662 32.78° C 74% 1015 hPa 0 mm - - -
1788104062 32.78° C 74% 1015 hPa 0 mm - - -
1788103461 32.78° C 74% 1016 hPa 0 mm - - -
1788102860 33.33° C 74% 1016 hPa 0 mm - - -
1788102260 33.33° C 74% 1016 hPa 0 mm - - -
1788101659 33.89° C 74% 1016 hPa 0.25 mm - - -
1788101059 34.44° C 74% 1016 hPa 0 mm - - -
1788100458 29.44° C 69% 1016 hPa 0 mm - - -
1788099857 29.44° C 67% 1016 hPa 0 mm - - -
1788099257 29.44° C 68% 1016 hPa 0 mm - - -
1788098656 30° C 72% 1016 hPa 0 mm - - -
1788098055 31.11° C 83% 1016 hPa 0 mm - - -
1788097455 31.67° C 83% 1016 hPa 0 mm - - -
1788096854 27.22° C 80% 1016 hPa 0 mm - - -

* Rain latest hour (hover to see other rain measurements)
** Current wind speed in m/s (hover to see current wind gust speed)